EW9763 Weather Reports


Display with metric or nautical units.
time (UTC)temp
F
wind
direction
speed
MPH
gust
MPH
rain 1hr
in
rain 24hr
in
rain mn
in
humidity
%
barometer
mb
20260902074645 77 126 3.0 8.0 0.00 0.00 0.00 85 1012.3
20260902074144 77 130 3.0 8.0 0.00 0.00 0.00 87 1012.2
20260902073640 77 180 2.0 7.0 0.00 0.00 0.00 87 1012.6
20260902073138 77 205 0.0 3.0 0.00 0.00 0.00 87 1012.9
20260902072639 77 255 2.0 6.0 0.00 0.00 0.00 87 1012.8
20260902072404 77 207 3.0 6.0 0.00 0.00 0.00 87 1013.2
20260902071903 77 202 2.0 5.0 0.00 0.00 0.00 87 1012.9
20260902071128 77 180 2.0 3.0 0.00 0.00 0.00 88 1012.8
20260902070626 77 180 1.0 3.0 0.00 0.00 0.00 88 1012.6
20260902070127 77 180 0.0 0.0 0.00 0.00 0.00 86 1012.7
20260902065622 77 180 0.0 0.0 0.00 0.00 0.00 86 1012.6
20260902065122 77 180 0.0 0.0 0.00 0.00 0.00 86 1012.5
20260902064624 77 180 0.0 0.0 0.00 0.00 0.00 86 1012.3
20260902064122 78 180 0.0 0.0 0.00 0.00 0.00 86 1012.4
20260902063852 78 180 0.0 0.0 0.00 0.00 0.00 86 1012.4
20260902063121 78 180 0.0 0.0 0.00 0.00 0.00 85 1012.3
20260902062614 78 174 0.0 0.0 0.00 0.00 0.00 85 1012.5
20260902062114 78 174 0.0 0.0 0.00 0.00 0.00 84 1012.6
20260902061612 79 174 1.0 2.0 0.00 0.00 0.00 84 1012.8
20260902061109 79 174 1.0 2.0 0.00 0.00 0.00 83 1012.8
20260902060607 80 174 0.0 2.0 0.00 0.00 0.00 82 1012.9
20260902060106 80 174 0.0 3.0 0.00 0.00 0.00 80 1012.8
20260902055605 80 174 1.0 3.0 0.00 0.00 0.00 79 1012.7
20260902055336 81 238 0.0 2.0 0.00 0.00 0.00 76 1012.6
20260902054604 81 239 0.0 2.0 0.00 0.00 0.00 75 1012.7
20260902054104 81 239 0.0 2.0 0.00 0.00 0.00 74 1012.6
20260902053835 81 239 0.0 2.0 0.00 0.00 0.00 73 1012.5
20260902053058 81 239 1.0 3.0 0.00 0.00 0.00 73 1012.5
20260902052827 81 234 1.0 3.0 0.00 0.00 0.00 73 1012.6
20260902052056 81 233 1.0 3.0 0.00 0.00 0.00 74 1012.6
20260902051556 80 221 1.0 3.0 0.00 0.00 0.00 75 1012.5
20260902051056 80 274 1.0 3.0 0.00 0.00 0.00 76 1012.5
20260902050557 81 310 1.0 2.0 0.00 0.00 0.00 78 1012.2
20260902050052 81 311 0.0 2.0 0.00 0.00 0.00 79 1012.1
20260902045552 81 250 1.0 3.0 0.00 0.00 0.00 77 1012.2
20260902045053 82 251 1.0 3.0 0.00 0.00 0.00 75 1012.3
20260902044552 82 252 1.0 3.0 0.00 0.00 0.00 76 1012.4
20260902044052 82 254 1.0 3.0 0.00 0.00 0.00 75 1012.3
20260902043551 82 248 1.0 7.0 0.00 0.00 0.00 74 1012.5
20260902043053 82 248 2.0 7.0 0.00 0.00 0.00 75 1012.4
20260902042546 82 253 2.0 4.0 0.00 0.00 0.00 76 1012.6
20260902042046 81 258 2.0 4.0 0.00 0.00 0.00 76 1012.4
20260902041819 81 237 2.0 4.0 0.00 0.00 0.00 79 1012.5
20260902041046 81 254 1.0 4.0 0.00 0.00 0.00 81 1012.5
20260902040549 81 229 2.0 5.0 0.00 0.00 0.00 83 1012.5
20260902040045 81 220 2.0 5.0 0.00 0.00 0.00 83 1012.5
20260902035813 81 223 1.0 4.0 0.00 0.00 0.00 84 1012.5
20260902035313 81 175 1.0 4.0 0.00 0.00 0.00 85 1012.5
20260902034544 81 175 1.0 4.0 0.00 0.00 0.00 85 1012.6
20260902034040 81 196 1.0 3.0 0.00 0.00 0.00 85 1012.5
20260902033539 81 214 1.0 4.0 0.00 0.00 0.00 85 1012.5
20260902033039 81 240 1.0 4.0 0.00 0.00 0.00 85 1012.4
20260902032533 82 205 1.0 3.0 0.00 0.00 0.00 85 1012.4
20260902032032 82 205 0.0 3.0 0.00 0.00 0.00 84 1012.3
20260902031532 82 217 1.0 2.0 0.00 0.00 0.00 84 1012.3
20260902031032 82 219 2.0 4.0 0.00 0.00 0.00 84 1012.2
20260902030531 82 192 1.0 4.0 0.00 0.00 0.00 84 1012.1
20260902030031 82 192 1.0 3.0 0.00 0.00 0.00 84 1012.1
20260902025526 82 192 1.0 2.0 0.00 0.00 0.00 84 1012.1
20260902025027 82 192 1.0 2.0 0.00 0.00 0.00 84 1012.0
20260902024759 82 175 1.0 3.0 0.00 0.00 0.00 83 1011.9
20260902024026 82 175 1.0 4.0 0.00 0.00 0.00 83 1011.8
20260902023527 82 175 2.0 4.0 0.00 0.00 0.00 83 1011.9
20260902023026 82 187 2.0 4.0 0.00 0.00 0.00 83 1011.8
20260902022527 82 184 2.0 4.0 0.00 0.00 0.00 83 1011.9
20260902022028 83 180 1.0 3.0 0.00 0.00 0.00 83 1011.9
20260902021523 83 178 0.0 3.0 0.00 0.00 0.00 82 1011.9
20260902021024 83 176 0.0 2.0 0.00 0.00 0.00 82 1011.9
20260902020522 83 173 0.0 4.0 0.00 0.00 0.00 82 1012.0
20260902020023 83 171 1.0 4.0 0.00 0.00 0.00 82 1012.0
20260902015755 83 160 2.0 4.0 0.00 0.00 0.00 82 1011.9
20260902015024 83 155 1.0 3.0 0.00 0.00 0.00 81 1011.8
20260902014520 83 194 2.0 4.0 0.00 0.00 0.00 81 1011.9
20260902014252 83 193 2.0 4.0 0.00 0.00 0.00 80 1011.7
20260902013520 83 195 2.0 4.0 0.00 0.00 0.00 80 1011.7
20260902013020 84 170 2.0 4.0 0.00 0.00 0.00 79 1011.7
20260902012520 84 188 2.0 5.0 0.00 0.00 0.00 79 1011.7
20260902012026 84 188 2.0 5.0 0.00 0.00 0.00 78 1011.7
20260902011519 84 187 2.0 4.0 0.00 0.00 0.00 77 1011.6
20260902011515 84 188 2.0 4.0 0.00 0.00 0.00 78 1011.6
20260902010517 84 171 1.0 4.0 0.00 0.00 0.00 77 1011.6
20260902010016 84 248 1.0 4.0 0.00 0.00 0.00 77 1011.5
20260902005515 85 270 1.0 4.0 0.00 0.00 0.00 77 1011.3
20260902005017 85 202 2.0 6.0 0.00 0.00 0.00 77 1011.2
20260902004512 85 201 2.0 6.0 0.00 0.00 0.00 77 1011.3
20260902004244 85 170 2.0 4.0 0.00 0.00 0.00 77 1011.3
20260902003512 85 223 2.0 4.0 0.00 0.00 0.00 77 1011.3
20260902003013 85 198 2.0 4.0 0.00 0.00 0.00 77 1011.2
20260902002511 85 214 2.0 4.0 0.00 0.00 0.00 77 1011.2
20260902001511 86 188 2.0 6.0 0.00 0.00 0.00 76 1011.1
20260902001011 86 194 3.0 7.0 0.00 0.00 0.00 76 1011.0
20260902000512 86 227 3.0 7.0 0.00 0.00 0.00 76 1011.0
20260902000012 86 188 3.0 7.0 0.00 0.00 0.00 76 1011.0
20260901235513 86 186 4.0 7.0 0.00 0.00 0.00 75 1010.9
20260901235010 86 213 4.0 8.0 0.00 0.00 0.00 75 1010.8
20260901234510 87 203 4.0 8.0 0.00 0.00 0.00 75 1010.8
20260901234010 87 133 4.0 8.0 0.00 0.00 0.00 74 1010.7
20260901233510 87 186 4.0 8.0 0.00 0.00 0.00 74 1010.9
20260901233010 87 165 4.0 7.0 0.00 0.00 0.00 74 1011.0
20260901232506 87 186 4.0 8.0 0.00 0.00 0.00 73 1011.1
20260901232005 88 200 3.0 8.0 0.00 0.00 0.00 72 1011.2
20260901231507 88 217 3.0 7.0 0.00 0.00 0.00 72 1011.3
20260901231004 88 161 4.0 8.0 0.00 0.00 0.00 71 1011.3
20260901230736 89 218 4.0 8.0 0.00 0.00 0.00 70 1011.3
20260901230005 89 235 3.0 7.0 0.00 0.00 0.00 69 1011.3
20260901225504 89 182 4.0 9.0 0.00 0.00 0.00 68 1011.3
20260901225230 89 209 4.0 9.0 0.00 0.00 0.00 67 1011.3
20260901224500 89 196 3.0 10.0 0.00 0.00 0.00 66 1011.3
20260901224001 90 192 3.0 10.0 0.00 0.00 0.00 66 1011.3
20260901223501 90 167 3.0 9.0 0.00 0.00 0.00 65 1011.3
20260901223000 90 232 3.0 7.0 0.00 0.00 0.00 65 1011.3
20260901222500 90 196 3.0 7.0 0.00 0.00 0.00 65 1011.4
20260901222000 91 181 4.0 10.0 0.00 0.00 0.00 65 1011.4
20260901221456 91 164 4.0 10.0 0.00 0.00 0.00 64 1011.3
20260901220956 91 219 3.0 8.0 0.00 0.00 0.00 63 1011.3
20260901220456 91 217 3.0 8.0 0.00 0.00 0.00 64 1011.2
20260901215956 91 263 4.0 11.0 0.00 0.00 0.00 63 1011.2
20260901215457 91 190 5.0 12.0 0.00 0.00 0.00 64 1011.2
20260901214955 91 196 4.0 12.0 0.00 0.00 0.00 64 1011.2
20260901214457 91 197 4.0 10.0 0.00 0.00 0.00 64 1011.2
20260901213951 91 187 5.0 10.0 0.00 0.00 0.00 64 1011.2
20260901213449 92 193 5.0 10.0 0.00 0.00 0.00 63 1011.2
20260901212948 92 199 4.0 8.0 0.00 0.00 0.00 64 1011.3
20260901212448 91 206 5.0 12.0 0.00 0.00 0.00 64 1011.2
20260901211946 91 194 6.0 12.0 0.00 0.00 0.00 64 1011.3
20260901211447 91 178 6.0 11.0 0.00 0.00 0.00 63 1011.4
20260901210939 91 234 6.0 14.0 0.00 0.00 0.00 63 1011.4
20260901210440 91 263 5.0 14.0 0.00 0.00 0.00 62 1011.5
20260901205941 92 210 3.0 9.0 0.00 0.00 0.00 62 1011.5
20260901205440 92 173 3.0 8.0 0.00 0.00 0.00 63 1011.5
20260901204941 92 231 2.0 7.0 0.00 0.00 0.00 63 1011.5
20260901204439 91 260 3.0 7.0 0.00 0.00 0.00 64 1011.5
20260901203940 91 161 4.0 7.0 0.00 0.00 0.00 65 1011.6
20260901203434 91 159 4.0 7.0 0.00 0.00 0.00 65 1011.6
20260901202934 91 182 4.0 8.0 0.00 0.00 0.00 64 1011.6
20260901202429 91 184 3.0 8.0 0.00 0.00 0.00 66 1011.6
20260901201933 90 188 3.0 7.0 0.00 0.00 0.00 66 1011.6
20260901201426 90 159 3.0 7.0 0.00 0.00 0.00 67 1011.7
20260901200923 91 180 3.0 6.0 0.00 0.00 0.00 66 1011.7
20260901200655 91 175 2.0 6.0 0.00 0.00 0.00 65 1011.9
20260901195923 91 216 1.0 3.0 0.00 0.00 0.00 65 1011.9
20260901195425 90 294 2.0 7.0 0.00 0.00 0.00 66 1011.9
20260901194925 90 286 2.0 7.0 0.00 0.00 0.00 66 1011.9
20260901194418 91 212 2.0 6.0 0.00 0.00 0.00 65 1012.0
20260901193917 91 260 2.0 6.0 0.00 0.00 0.00 66 1012.0
20260901193649 91 162 2.0 5.0 0.00 0.00 0.00 67 1012.1
20260901192918 91 244 3.0 11.0 0.00 0.00 0.00 68 1012.1
20260901192649 91 215 3.0 11.0 0.00 0.00 0.00 68 1012.2
20260901191919 90 205 2.0 6.0 0.00 0.00 0.00 70 1012.2
20260901191643 90 164 3.0 6.0 0.00 0.00 0.00 71 1012.3
20260901190912 89 311 2.0 6.0 0.00 0.00 0.00 71 1012.3
20260901190412 89 140 3.0 6.0 0.00 0.00 0.00 72 1012.3
20260901185911 89 219 3.0 6.0 0.00 0.00 0.00 71 1012.3
20260901185412 90 159 3.0 6.0 0.00 0.00 0.00 72 1012.3
20260901184912 89 152 2.0 6.0 0.00 0.00 0.00 72 1012.3
20260901184407 90 234 2.0 5.0 0.00 0.00 0.00 72 1012.3
20260901183908 89 138 2.0 4.0 0.00 0.00 0.00 74 1012.3
20260901183405 89 132 2.0 7.0 0.00 0.00 0.00 74 1012.3
20260901183136 89 311 2.0 7.0 0.00 0.00 0.00 72 1012.4
20260901182405 89 298 1.0 5.0 0.00 0.00 0.00 75 1012.4
20260901181907 88 212 2.0 8.0 0.00 0.00 0.00 75 1012.3
20260901181402 87 315 3.0 8.0 0.00 0.00 0.00 78 1012.4
20260901180902 87 58 3.0 6.0 0.00 0.00 0.00 77 1012.4
20260901180403 87 5 3.0 6.0 0.00 0.00 0.00 78 1012.5
20260901175902 86 319 4.0 8.0 0.00 0.00 0.00 79 1012.6
20260901175359 86 329 4.0 8.0 0.00 0.00 0.00 79 1012.6
20260901174901 87 277 2.0 8.0 0.00 0.00 0.00 79 1012.7
20260901174356 86 291 3.0 7.0 0.00 0.00 0.00 79 1012.7
20260901173859 86 306 3.0 7.0 0.00 0.00 0.00 81 1012.8
20260901173854 86 248 3.0 7.0 0.00 0.00 0.00 79 1012.7
20260901172853 86 5 3.0 7.0 0.00 0.00 0.00 80 1012.8
20260901172624 86 314 3.0 7.0 0.00 0.00 0.00 80 1012.9
20260901171854 86 288 1.0 7.0 0.00 0.00 0.00 82 1012.9
20260901171348 85 342 2.0 6.0 0.00 0.00 0.00 83 1013.1
20260901170847 85 326 3.0 8.0 0.00 0.00 0.00 81 1013.1
20260901170347 85 290 3.0 8.0 0.00 0.00 0.00 82 1013.1
20260901170120 85 42 3.0 5.0 0.00 0.00 0.00 82 1013.2
20260901165345 85 73 3.0 7.0 0.00 0.00 0.00 84 1013.1
20260901164847 84 26 3.0 7.0 0.00 0.00 0.00 83 1013.1
20260901164340 83 5 3.0 7.0 0.00 0.00 0.00 84 1013.2
20260901163839 83 19 3.0 7.0 0.00 0.00 0.00 84 1013.2
20260901163339 84 55 3.0 5.0 0.00 0.00 0.00 84 1013.3
20260901162840 84 31 3.0 8.0 0.00 0.00 0.00 85 1013.3
20260901162339 83 320 4.0 8.0 0.00 0.00 0.00 86 1013.5
20260901161840 83 325 3.0 5.0 0.00 0.00 0.00 85 1013.6
20260901161337 84 152 2.0 4.0 0.00 0.00 0.00 84 1013.6
20260901160835 84 313 2.0 5.0 0.00 0.00 0.00 84 1013.6
20260901160336 83 306 2.0 5.0 0.00 0.00 0.00 86 1013.6
20260901155836 82 46 2.0 4.0 0.00 0.00 0.00 87 1013.6
20260901155333 82 19 1.0 4.0 0.00 0.00 0.00 89 1013.6
20260901154833 81 159 1.0 2.0 0.00 0.00 0.00 91 1013.6
20260901154327 80 143 2.0 4.0 0.00 0.00 0.00 91 1013.5
20260901153826 80 143 2.0 5.0 0.00 0.00 0.00 91 1013.5
20260901153324 80 166 2.0 5.0 0.00 0.00 0.00 93 1013.6
20260901152821 79 159 2.0 5.0 0.00 0.00 0.00 95 1013.5
20260901152323 78 153 1.0 3.0 0.00 0.00 0.00 96 1013.5
20260901151820 76 313 1.0 4.0 0.00 0.00 0.00 97 1013.5
20260901151814 77 184 1.0 3.0 0.00 0.00 0.00 97 1013.5
20260901150813 76 294 1.0 4.0 0.00 0.00 0.00 97 1013.5
20260901150548 76 323 1.0 4.0 0.00 0.00 0.00 97 1013.5
20260901145813 76 263 1.0 4.0 0.00 0.00 0.00 97 1013.5
20260901145545 76 314 1.0 3.0 0.00 0.00 0.00 97 1013.4
20260901144812 76 334 2.0 5.0 0.00 0.00 0.00 97 1013.4
20260901144807 76 329 1.0 4.0 0.00 0.00 0.00 97 1013.3
20260901143803 76 327 3.0 5.0 0.00 0.00 0.00 97 1013.4
20260901143302 76 298 2.0 5.0 0.00 0.00 0.00 97 1013.3
20260901142801 76 322 3.0 4.0 0.00 0.00 0.00 97 1013.3
20260901142305 76 311 3.0 4.0 0.00 0.00 0.00 97 1013.3
20260901141802 75 328 2.0 4.0 0.00 0.00 0.00 97 1013.3
20260901141300 75 323 3.0 4.0 0.00 0.00 0.00 97 1013.3
20260901140759 75 321 3.0 5.0 0.00 0.00 0.00 97 1013.3
20260901140257 75 313 1.0 5.0 0.00 0.00 0.00 97 1013.3
20260901135757 75 31 0.0 0.0 0.00 0.00 0.00 97 1013.3
20260901135257 75 46 0.0 0.0 0.00 0.00 0.00 98 1013.3
20260901134758 75 35 0.0 0.0 0.00 0.00 0.00 98 1013.2
20260901134257 75 35 0.0 0.0 0.00 0.00 0.00 98 1013.2
20260901133753 75 35 0.0 0.0 0.00 0.00 0.00 97 1013.2
20260901133253 75 34 0.0 0.0 0.00 0.00 0.00 97 1013.2
20260901132753 75 32 0.0 0.0 0.00 0.00 0.00 97 1013.1
20260901132253 74 325 0.0 0.0 0.00 0.00 0.00 97 1013.3
20260901131753 74 322 0.0 0.0 0.00 0.00 0.00 97 1013.3
20260901131253 74 321 0.0 0.0 0.00 0.00 0.00 98 1013.3
20260901131021 74 301 0.0 0.0 0.00 0.00 0.00 98 1013.4
20260901130520 74 284 0.0 0.0 0.00 0.00 0.00 97 1013.4
20260901125749 74 194 0.0 0.0 0.00 0.00 0.00 97 1013.4
20260901125521 74 193 0.0 0.0 0.00 0.00 0.00 97 1013.4
20260901124750 74 188 0.0 0.0 0.00 0.00 0.00 98 1013.3
20260901124521 73 196 0.0 0.0 0.00 0.00 0.00 97 1013.3
20260901124017 73 198 0.0 0.0 0.00 0.00 0.00 98 1013.3
20260901123246 73 200 0.0 0.0 0.00 0.00 0.00 97 1013.4
20260901123017 72 186 0.0 0.0 0.00 0.00 0.00 97 1013.3
20260901122245 72 174 0.0 0.0 0.00 0.00 0.00 97 1013.3
20260901121746 72 180 0.0 0.0 0.00 0.00 0.00 97 1013.1
20260901121245 72 190 0.0 0.0 0.00 0.00 0.00 97 1013.2
20260901120744 72 193 0.0 0.0 0.00 0.00 0.00 97 1013.1
20260901120242 72 193 0.0 0.0 0.00 0.00 0.00 97 1013.0
20260901115742 71 186 0.0 0.0 0.00 0.00 0.00 97 1012.8
20260901115241 71 188 0.0 0.0 0.00 0.00 0.00 97 1012.8
20260901114741 71 193 0.0 0.0 0.00 0.00 0.00 97 1012.7
20260901114242 71 186 0.0 0.0 0.00 0.00 0.00 97 1012.6
20260901113738 72 200 0.0 0.0 0.00 0.00 0.00 97 1012.7
20260901113239 72 198 0.0 0.0 0.00 0.00 0.00 97 1012.7
20260901112735 72 197 0.0 0.0 0.00 0.00 0.00 97 1012.6
20260901112235 71 196 0.0 0.0 0.00 0.00 0.00 97 1012.5
20260901111737 71 194 0.0 0.0 0.00 0.00 0.00 97 1012.4
20260901111235 71 193 0.0 0.0 0.00 0.00 0.00 97 1012.4
20260901110736 71 189 0.0 0.0 0.00 0.00 0.00 97 1012.4
20260901110234 71 189 0.0 0.0 0.00 0.00 0.00 97 1012.3
20260901110007 72 187 0.0 0.0 0.00 0.00 0.00 96 1012.3
20260901105232 72 188 0.0 0.0 0.00 0.00 0.00 96 1012.3
20260901104729 72 192 0.0 0.0 0.00 0.00 0.00 96 1012.2
20260901104230 72 192 0.0 0.0 0.00 0.00 0.00 97 1012.2
20260901103729 72 188 0.0 0.0 0.00 0.00 0.00 96 1012.2
20260901103457 72 186 0.0 0.0 0.00 0.00 0.00 96 1012.1
20260901102724 72 186 0.0 0.0 0.00 0.00 0.00 96 1012.1
20260901102225 72 186 0.0 0.0 0.00 0.01 0.00 96 1012.0
20260901102220 72 186 0.0 0.0 0.00 0.01 0.00 96 1012.1
20260901101216 72 186 0.0 0.0 0.00 0.01 0.00 96 1012.1
20260901100944 72 180 0.0 0.0 0.00 0.01 0.00 96 1012.0
20260901100213 72 182 0.0 0.0 0.00 0.01 0.00 96 1012.0
20260901095708 72 182 0.0 0.0 0.00 0.01 0.00 96 1012.1
20260901095210 72 183 0.0 0.0 0.00 0.01 0.00 96 1012.0
20260901094941 72 185 0.0 0.0 0.00 0.01 0.00 96 1012.1
20260901094208 73 184 0.0 0.0 0.00 0.01 0.00 96 1012.1
20260901093704 73 187 0.0 0.0 0.00 0.01 0.00 96 1012.3
20260901093205 73 187 0.0 0.0 0.00 0.01 0.00 96 1012.3
20260901092659 73 187 0.0 1.0 0.00 0.01 0.00 96 1012.4
20260901092159 73 187 0.0 1.0 0.00 0.04 0.00 96 1012.3
20260901091700 73 188 0.0 0.0 0.00 0.04 0.00 96 1012.2
20260901091656 73 188 0.0 0.0 0.00 0.04 0.00 96 1012.3
20260901090931 73 188 0.0 0.0 0.00 0.04 0.00 96 1012.2
20260901090157 73 185 0.0 0.0 0.00 0.04 0.00 96 1012.2
20260901085652 73 184 0.0 0.0 0.00 0.04 0.00 95 1012.2
20260901085152 73 182 0.0 0.0 0.00 0.04 0.00 96 1012.1
20260901084654 74 182 0.0 0.0 0.00 0.04 0.00 96 1012.1
20260901084425 74 182 0.0 0.0 0.00 0.04 0.00 96 1012.1
20260901083650 74 182 0.0 0.0 0.00 0.04 0.00 96 1012.0
20260901083151 74 182 0.0 0.0 0.00 0.04 0.00 96 1012.0
20260901082645 74 182 0.0 0.0 0.00 0.04 0.00 95 1011.9
20260901082142 74 183 0.0 1.0 0.00 0.04 0.00 95 1011.9
20260901081640 74 182 0.0 1.0 0.00 0.04 0.00 95 1012.0
20260901081138 74 182 0.0 0.0 0.00 0.04 0.00 95 1012.0
20260901080638 74 182 0.0 0.0 0.00 0.04 0.00 95 1012.0
20260901080407 74 179 0.0 0.0 0.00 0.04 0.00 95 1011.9
20260901075634 74 179 0.0 0.0 0.00 0.04 0.00 95 1011.9
20260901075136 74 179 0.0 0.0 0.00 0.04 0.00 95 1011.9